Hourly Data Report for February 15, 2006

TORONTO CITY
ONTARIO

43°40'00.000" N
79°24'00.000" W
112.50 m
6158355
71508
XTO

Download Data

Hourly Data (February 2006)
Hourly Data Report for February 15, 2006
TIME
LST
Temp Definition
°C
Dew Point Definition
°C
Rel Hum Definition
%
Precip. Amount Definition
mm

Wind Dir Definition
10's deg

Wind Spd Definition
km/h
Visibility Definition
km
Stn Press Definition
kPa
Hmdx Definition


Wind Chill Definition


Weather Definition


00:00 3.9 0.2 77   LegendMM LegendMM   99.81     LegendNANA
01:00 3.3 0.3 81   LegendMM LegendMM   99.79     LegendNANA
02:00 3.4 0.0 78   LegendMM LegendMM   99.73     LegendNANA
03:00 3.3 0.3 81   LegendMM LegendMM   99.73     LegendNANA
04:00 3.6 0.5 80   LegendMM LegendMM   99.71     LegendNANA
05:00 3.8 0.2 77   LegendMM LegendMM   99.74     LegendNANA
06:00 4.4 0.5 76   LegendMM LegendMM   99.79     LegendNANA
07:00 4.8 -0.2 70   LegendMM LegendMM   99.81     LegendNANA
08:00 5.1 -0.2 69   LegendMM LegendMM   99.92     LegendNANA
09:00 5.4 -0.3 67   LegendMM LegendMM   100.05     LegendNANA
10:00 5.8 0.0 66   LegendMM LegendMM   100.13     LegendNANA
11:00 6.0 0.2 66   LegendMM LegendMM   100.22     LegendNANA
12:00 6.9 0.4 63   LegendMM LegendMM   100.27     LegendNANA
13:00 7.4 0.4 61   LegendMM LegendMM   100.30     LegendNANA
14:00 7.3 0.8 63   LegendMM LegendMM   100.36     LegendNANA
15:00 7.0 0.8 65   LegendMM LegendMM   100.44     LegendNANA
16:00 6.7 0.8 66   LegendMM LegendMM   100.52     LegendNANA
17:00 6.3 0.5 66   LegendMM LegendMM   100.56     LegendNANA
18:00 5.6 0.5 70   LegendMM LegendMM   100.66     LegendNANA
19:00 4.4 0.2 74   LegendMM LegendMM   100.74     LegendNANA
20:00 3.4 -0.7 74   LegendMM LegendMM   100.78     LegendNANA
21:00 2.8 -1.3 74   LegendMM LegendMM   100.84     LegendNANA
22:00 2.3 -1.8 74   LegendMM LegendMM   100.91     LegendNANA
23:00 1.8 -2.0 76   LegendMM LegendMM   100.93     LegendNANA

Notes on Data Quality.

Legend

  • E = Estimated
  • M = Missing
  • NA = Not Available*
  • [empty] = Indicates an unobserved value
Date modified: